FW5763 Weather Reports


Display with metric or nautical units.
time (UTC)temp
F
wind
direction
speed
MPH
gust
MPH
rain 1hr
in
rain 24hr
in
rain mn
in
humidity
%
barometer
mb
20260906125518 53 302 1.0 2.0 0.00 0.00 0.00 84 1015.2
20260906124518 53 304 0.0 2.0 0.00 0.00 0.00 85 1015.1
20260906123517 53 300 1.0 2.0 0.00 0.00 0.00 85 1015.3
20260906122518 53 0.0 1.0 0.00 0.00 0.00 85 1015.2
20260906121518 53 0.0 0.0 0.00 0.00 0.00 85 1015.1
20260906120518 53 300 0.0 1.0 0.00 0.00 0.00 85 1015.1
20260906115536 53 300 0.0 1.0 0.00 0.00 0.00 85 1015.1
20260906114518 53 306 0.0 1.0 0.00 0.00 0.00 85 1015.2
20260906113518 53 344 0.0 2.0 0.00 0.00 0.00 85 1015.1
20260906112518 54 0.0 0.0 0.00 0.00 0.00 85 1015.1
20260906111516 54 0.0 0.0 0.00 0.00 0.00 85 1015.1
20260906110518 54 344 2.0 2.0 0.00 0.00 0.00 85 1015.0
20260906105518 54 42 0.0 1.0 0.00 0.00 0.00 85 1015.0
20260906104518 54 0.0 0.0 0.00 0.00 0.00 84 1015.0
20260906103536 54 0.0 0.0 0.00 0.00 0.00 84 1015.1
20260906102518 54 0.0 1.0 0.00 0.00 0.00 85 1015.1
20260906101517 54 0.0 0.0 0.00 0.00 0.00 84 1015.2
20260906100515 55 0.0 0.0 0.00 0.00 0.00 84 1015.1
20260906095537 55 0.0 0.0 0.00 0.00 0.00 84 1015.2
20260906094518 55 0.0 1.0 0.00 0.00 0.00 83 1015.2
20260906093518 55 0.0 0.0 0.00 0.00 0.00 83 1015.2
20260906092515 55 0.0 0.0 0.00 0.00 0.00 83 1015.3
20260906091517 55 0.0 0.0 0.00 0.00 0.00 83 1015.2
20260906090518 55 0.0 0.0 0.00 0.00 0.00 82 1015.3
20260906085516 56 0.0 1.0 0.00 0.00 0.00 82 1015.3
20260906084518 56 42 0.0 1.0 0.00 0.00 0.00 81 1015.3
20260906083517 56 42 0.0 1.0 0.00 0.00 0.00 81 1015.4
20260906082517 56 0.0 0.0 0.00 0.00 0.00 80 1015.5
20260906081517 57 0.0 0.0 0.00 0.00 0.00 80 1015.5
20260906080517 57 0.0 0.0 0.00 0.00 0.00 80 1015.6
20260906075517 57 0.0 0.0 0.00 0.00 0.00 80 1015.6
20260906074515 57 0.0 0.0 0.00 0.00 0.00 80 1015.6
20260906073517 58 0.0 0.0 0.00 0.00 0.00 79 1015.5
20260906072517 58 0.0 0.0 0.00 0.00 0.00 79 1015.5
20260906071518 58 0.0 1.0 0.00 0.00 0.00 78 1015.5
20260906070515 58 42 0.0 1.0 0.00 0.00 0.00 78 1015.6
20260906065518 59 0.0 1.0 0.00 0.00 0.00 77 1015.5
20260906064517 59 42 1.0 2.0 0.00 0.00 0.00 77 1015.4
20260906063518 59 0.0 0.0 0.00 0.00 0.00 76 1015.4
20260906062515 60 26 0.0 1.0 0.00 0.00 0.00 76 1015.4
20260906061517 60 0.0 0.0 0.00 0.00 0.00 75 1015.3
20260906060517 60 0.0 0.0 0.00 0.00 0.00 74 1015.4
20260906055517 61 0.0 0.0 0.00 0.00 0.00 74 1015.4
20260906054515 61 0.0 1.0 0.00 0.00 0.00 74 1015.4
20260906053518 61 0.0 0.0 0.00 0.00 0.00 73 1015.4
20260906052517 62 0.0 0.0 0.00 0.00 0.00 73 1015.5
20260906051518 62 0.0 1.0 0.00 0.00 0.00 74 1015.5
20260906050516 63 264 0.0 1.0 0.00 0.00 0.00 73 1015.5
20260906045538 63 266 1.0 2.0 0.00 0.00 0.00 73 1015.4
20260906044517 64 273 0.0 2.0 0.00 0.00 0.00 72 1015.3
20260906043537 64 231 0.0 1.0 0.00 0.00 0.00 70 1015.3
20260906042518 65 204 1.0 3.0 0.00 0.00 0.00 70 1015.2
20260906041518 66 196 2.0 4.0 0.00 0.00 0.00 66 1015.0
20260906040537 67 274 0.0 1.0 0.00 0.00 0.00 61 1014.8
20260906035516 67 289 1.0 3.0 0.00 0.00 0.00 60 1014.7
20260906034517 68 289 2.0 3.0 0.00 0.00 0.00 59 1014.6
20260906033517 68 287 1.0 2.0 0.00 0.00 0.00 58 1014.4
20260906032517 69 0.0 0.0 0.00 0.00 0.00 57 1014.2
20260906031516 69 308 3.0 4.0 0.00 0.00 0.00 56 1014.0
20260906030517 70 317 0.0 1.0 0.00 0.00 0.00 54 1013.9
20260906025517 70 321 1.0 1.0 0.00 0.00 0.00 53 1013.9
20260906024517 71 305 2.0 6.0 0.00 0.00 0.00 52 1013.8
20260906023516 71 322 1.0 5.0 0.00 0.00 0.00 50 1013.8
20260906022517 72 341 1.0 2.0 0.00 0.00 0.00 49 1013.8
20260906021517 73 315 1.0 4.0 0.00 0.00 0.00 47 1013.8
20260906020537 74 339 2.0 5.0 0.00 0.00 0.00 46 1013.8
20260906015516 74 304 2.0 4.0 0.00 0.00 0.00 44 1013.8
20260906014517 75 314 4.0 10.0 0.00 0.00 0.00 42 1013.9
20260906013517 76 304 3.0 8.0 0.00 0.00 0.00 40 1013.7
20260906012517 77 302 6.0 12.0 0.00 0.00 0.00 38 1013.7
20260906011516 78 314 6.0 10.0 0.00 0.00 0.00 37 1013.6
20260906010517 79 318 5.0 11.0 0.00 0.00 0.00 36 1013.6
20260906005517 80 293 7.0 12.0 0.00 0.00 0.00 36 1013.6
20260906004537 82 320 6.0 9.0 0.00 0.00 0.00 36 1013.5
20260906003516 82 277 7.0 9.0 0.00 0.00 0.00 37 1013.4
20260906002517 82 296 2.0 7.0 0.00 0.00 0.00 37 1013.4
20260906001517 81 284 3.0 6.0 0.00 0.00 0.00 37 1013.3
20260906000517 81 186 6.0 9.0 0.00 0.00 0.00 37 1013.3
20260905235516 81 196 4.0 6.0 0.00 0.00 0.00 36 1013.5
20260905234517 81 244 5.0 7.0 0.00 0.00 0.00 36 1013.5
20260905233537 81 207 3.0 6.0 0.00 0.00 0.00 36 1013.6
20260905232517 81 173 3.0 8.0 0.00 0.00 0.00 36 1013.5
20260905231616 81 127 5.0 8.0 0.00 0.00 0.00 35 1013.5
20260905230517 80 161 5.0 7.0 0.00 0.00 0.00 35 1013.7
20260905225517 81 158 3.0 4.0 0.00 0.00 0.00 36 1013.9
20260905224537 81 158 7.0 9.0 0.00 0.00 0.00 35 1014.0
20260905223516 81 195 3.0 10.0 0.00 0.00 0.00 36 1014.0
20260905222517 81 180 3.0 7.0 0.00 0.00 0.00 36 1014.0
20260905221517 80 151 5.0 9.0 0.00 0.00 0.00 37 1014.0
20260905220517 80 222 2.0 7.0 0.00 0.00 0.00 37 1014.1
20260905215516 80 243 1.0 5.0 0.00 0.00 0.00 35 1014.3
20260905214517 79 213 4.0 7.0 0.00 0.00 0.00 35 1014.5
20260905213517 79 224 5.0 7.0 0.00 0.00 0.00 33 1014.5
20260905212517 79 226 4.0 5.0 0.00 0.00 0.00 32 1014.5
20260905211517 79 199 4.0 7.0 0.00 0.00 0.00 31 1014.7
20260905210515 78 200 3.0 8.0 0.00 0.00 0.00 32 1014.8
20260905205517 77 261 3.0 14.0 0.00 0.00 0.00 33 1014.8
20260905204517 77 187 3.0 9.0 0.00 0.00 0.00 35 1014.8
20260905203517 76 191 4.0 6.0 0.00 0.00 0.00 37 1014.8
20260905202516 76 191 2.0 6.0 0.00 0.00 0.00 39 1014.9
20260905201517 76 238 6.0 9.0 0.00 0.00 0.00 40 1014.9
20260905200537 74 211 4.0 8.0 0.00 0.00 0.00 41 1015.1
20260905195517 73 158 4.0 8.0 0.00 0.00 0.00 41 1015.1
20260905194517 73 181 4.0 6.0 0.00 0.00 0.00 41 1015.2
20260905193517 72 213 3.0 7.0 0.00 0.00 0.00 41 1015.3
20260905192517 72 147 5.0 8.0 0.00 0.00 0.00 42 1015.4
20260905191516 71 198 5.0 7.0 0.00 0.00 0.00 45 1015.6
20260905190517 70 240 2.0 4.0 0.00 0.00 0.00 48 1015.7
20260905185517 70 165 3.0 6.0 0.00 0.00 0.00 49 1015.8
20260905184537 69 226 5.0 6.0 0.00 0.00 0.00 52 1015.8
20260905183516 69 232 3.0 7.0 0.00 0.00 0.00 52 1015.9
20260905182516 69 228 5.0 7.0 0.00 0.00 0.00 53 1015.8
20260905181536 67 149 1.0 3.0 0.00 0.00 0.00 56 1015.7
20260905180537 67 197 2.0 4.0 0.00 0.00 0.00 56 1015.6
20260905175516 67 214 4.0 7.0 0.00 0.00 0.00 56 1015.7
20260905174557 67 190 4.0 8.0 0.00 0.00 0.00 57 1015.6
20260905173517 67 133 3.0 5.0 0.00 0.00 0.00 57 1015.5
20260905172516 68 104 3.0 4.0 0.00 0.00 0.00 57 1015.5
20260905171517 68 138 1.0 6.0 0.00 0.00 0.00 56 1015.5
20260905170516 68 135 1.0 3.0 0.00 0.00 0.00 56 1015.5
20260905165517 68 113 2.0 4.0 0.00 0.00 0.00 57 1015.4
20260905164516 68 125 3.0 6.0 0.00 0.00 0.00 56 1015.4
20260905163517 67 142 2.0 5.0 0.00 0.00 0.00 56 1015.3
20260905162516 66 280 2.0 4.0 0.00 0.00 0.00 55 1015.2
20260905161516 65 70 2.0 3.0 0.00 0.00 0.00 58 1015.3
20260905160515 64 237 1.0 3.0 0.00 0.00 0.00 60 1015.3
20260905155556 64 160 2.0 4.0 0.00 0.00 0.00 59 1015.3
20260905154516 64 164 2.0 4.0 0.00 0.00 0.00 60 1015.2
20260905153536 64 69 1.0 2.0 0.00 0.00 0.00 62 1015.1
20260905152516 63 92 1.0 2.0 0.00 0.00 0.00 62 1015.1
20260905151516 61 22 0.0 1.0 0.00 0.00 0.00 64 1015.2
20260905150516 60 0.0 1.0 0.00 0.00 0.00 66 1015.0
20260905145517 58 80 1.0 2.0 0.00 0.00 0.00 70 1015.1
20260905144516 57 0.0 2.0 0.00 0.00 0.00 73 1014.9
20260905143517 56 37 1.0 3.0 0.00 0.00 0.00 75 1015.0
20260905142517 55 9 0.0 1.0 0.00 0.00 0.00 77 1014.8
20260905141517 54 59 1.0 2.0 0.00 0.00 0.00 76 1014.9
20260905140537 54 19 0.0 1.0 0.00 0.00 0.00 75 1014.7
20260905135517 54 0.0 0.0 0.00 0.00 0.00 75 1014.7
20260905134537 55 19 0.0 1.0 0.00 0.01 0.00 74 1014.7
20260905133536 55 0.0 1.0 0.00 0.01 0.00 74 1014.7
20260905132517 55 329 1.0 2.0 0.00 0.01 0.00 75 1014.7
20260905131536 55 24 0.0 1.0 0.00 0.01 0.00 75 1014.6
20260905130517 55 39 1.0 1.0 0.00 0.01 0.00 74 1014.6